When you browse on this site, cookies collect data to enhance your experience and personalize the content and advertising you see.
Visit our Privacy Policy to learn more. By continuing to use the site, you agree to this use of cookies and data.
  • In Latvia
  • List of Countries
  • For 7 days
  • Water Temperature
  • Weather Map
  • Weather Widgets
  • user-avatar
    Login

    Hourly Weather La Chaux-de-Fonds

    Today, 20 August, Tuesday

    Time Temperature Precipitation Wind Pressure Humidity
    00:00 +11°C° 0 mm 0 mps 682 mmHg 90%
    01:00 +11°C° 0.1 mm 0 mps 682 mmHg 91%
    02:00 +11°C° 0.1 mm 0 mps 681 mmHg 91%
    03:00 +11°C° 0.1 mm 1 mps 681 mmHg 92%
    04:00 +12°C° 0.8 mm 1 mps 681 mmHg 93%
    05:00 +12°C° 0.8 mm 1 mps 681 mmHg 95%
    06:00 +12°C° 0 mm 1 mps 682 mmHg 96%
    07:00 +12°C° 1.4 mm 1 mps 682 mmHg 96%
    08:00 +13°C° 1.4 mm 1 mps 682 mmHg 96%
    09:00 +12°C° 1.4 mm 0 mps 682 mmHg 96%
    10:00 +13°C° 1 mm 1 mps 683 mmHg 96%
    11:00 +13°C° 1 mm 1 mps 683 mmHg 96%
    12:00 +13°C° 0 mm 1 mps 684 mmHg 97%
    13:00 +13°C° 2.2 mm 1 mps 684 mmHg 97%
    14:00 +12°C° 2.2 mm 1 mps 684 mmHg 97%
    15:00 +12°C° 2.2 mm 1 mps 684 mmHg 97%
    16:00 +11°C° 2.7 mm 1 mps 684 mmHg 97%
    17:00 +11°C° 2.7 mm 1 mps 684 mmHg 97%
    18:00 +11°C° 2.7 mm 1 mps 685 mmHg 97%
    19:00 +10°C° 0.4 mm 1 mps 685 mmHg 97%
    20:00 +10°C° 0.4 mm 1 mps 685 mmHg 96%
    21:00 +10°C° 0.4 mm 1 mps 685 mmHg 96%
    22:00 +9°C° 0 mm 1 mps 685 mmHg 95%
    23:00 +9°C° 0 mm 1 mps 685 mmHg 95%

    Tomorrow, 21 August, Wednesday

    Time Temperature Precipitation Wind Pressure Humidity
    00:00 +8°C° 0 mm 1 mps 685 mmHg 95%
    01:00 +7°C° 0 mm 2 mps 684 mmHg 96%
    02:00 +7°C° 0 mm 2 mps 684 mmHg 96%
    03:00 +7°C° 0 mm 2 mps 684 mmHg 97%
    04:00 +7°C° 0 mm 2 mps 684 mmHg 97%
    05:00 +8°C° 0 mm 3 mps 684 mmHg 96%
    06:00 +8°C° 0 mm 3 mps 684 mmHg 96%
    07:00 +10°C° 0 mm 3 mps 684 mmHg 88%
    08:00 +11°C° 0 mm 4 mps 685 mmHg 80%
    09:00 +13°C° 0 mm 5 mps 685 mmHg 72%
    10:00 +14°C° 0 mm 5 mps 685 mmHg 68%
    11:00 +16°C° 0 mm 5 mps 685 mmHg 64%
    12:00 +17°C° 0 mm 5 mps 685 mmHg 60%
    13:00 +17°C° 0 mm 5 mps 685 mmHg 61%
    14:00 +17°C° 0 mm 5 mps 685 mmHg 61%
    15:00 +17°C° 0 mm 5 mps 684 mmHg 62%
    16:00 +17°C° 0 mm 4 mps 684 mmHg 68%
    17:00 +15°C° 0 mm 4 mps 684 mmHg 75%
    18:00 +14°C° 0 mm 3 mps 684 mmHg 81%
    19:00 +12°C° 0 mm 3 mps 683 mmHg 85%
    20:00 +12°C° 0 mm 2 mps 683 mmHg 89%
    21:00 +10°C° 0 mm 2 mps 683 mmHg 93%
    22:00 +10°C° 0 mm 2 mps 683 mmHg 94%
    23:00 +10°C° 0 mm 2 mps 683 mmHg 95%

    Day after tomorrow, 22 August, Thursday

    Time Temperature Precipitation Wind Pressure Humidity
    00:00 +9°C° 0 mm 2 mps 683 mmHg 96%
    01:00 +10°C° 0 mm 1 mps 683 mmHg 96%
    02:00 +10°C° 0 mm 1 mps 683 mmHg 96%
    03:00 +10°C° 0 mm 1 mps 682 mmHg 97%
    04:00 +10°C° 0 mm 1 mps 683 mmHg 96%
    05:00 +11°C° 0 mm 1 mps 683 mmHg 95%
    06:00 +11°C° 0 mm 1 mps 683 mmHg 94%
    07:00 +13°C° 0 mm 1 mps 684 mmHg 88%
    08:00 +15°C° 0 mm 1 mps 684 mmHg 81%
    09:00 +18°C° 0 mm 1 mps 685 mmHg 74%
    10:00 +18°C° 0 mm 2 mps 685 mmHg 71%
    11:00 +20°C° 0 mm 2 mps 685 mmHg 68%
    12:00 +21°C° 0 mm 2 mps 685 mmHg 64%
    13:00 +21°C° 0 mm 2 mps 685 mmHg 65%
    14:00 +21°C° 0 mm 2 mps 685 mmHg 66%
    15:00 +21°C° 0 mm 2 mps 684 mmHg 67%
    16:00 +20°C° 0 mm 2 mps 684 mmHg 75%
    17:00 +18°C° 0 mm 2 mps 684 mmHg 82%
    18:00 +17°C° 0 mm 2 mps 684 mmHg 89%
    19:00 +16°C° 0 mm 2 mps 684 mmHg 91%
    20:00 +15°C° 0 mm 1 mps 684 mmHg 93%
    21:00 +14°C° 0 mm 1 mps 684 mmHg 95%
    22:00 +13°C° 0 mm 1 mps 684 mmHg 95%
    23:00 +13°C° 0 mm 1 mps 683 mmHg 96%

    23 August, Friday

    Time Temperature Precipitation Wind Pressure Humidity
    00:00 +13°C° 0 mm 1 mps 683 mmHg 96%
    01:00 +12°C° 0 mm 1 mps 683 mmHg 96%
    02:00 +12°C° 0 mm 1 mps 683 mmHg 96%
    03:00 +12°C° 0 mm 1 mps 683 mmHg 97%
    04:00 +12°C° 0 mm 1 mps 683 mmHg 96%
    05:00 +13°C° 0 mm 1 mps 683 mmHg 96%
    06:00 +13°C° 0 mm 1 mps 683 mmHg 96%
    07:00 +15°C° 0 mm 1 mps 684 mmHg 90%
    08:00 +18°C° 0 mm 1 mps 684 mmHg 84%
    09:00 +20°C° 0 mm 1 mps 685 mmHg 78%
    10:00 +20°C° 0 mm 2 mps 685 mmHg 73%
    11:00 +21°C° 0 mm 2 mps 685 mmHg 68%
    12:00 +23°C° 0 mm 2 mps 685 mmHg 64%
    13:00 +23°C° 0 mm 2 mps 684 mmHg 65%
    14:00 +23°C° 0 mm 2 mps 684 mmHg 66%
    15:00 +23°C° 0 mm 2 mps 684 mmHg 67%
    16:00 +21°C° 0 mm 2 mps 683 mmHg 74%
    17:00 +19°C° 0 mm 2 mps 683 mmHg 82%
    18:00 +19°C° 0 mm 1 mps 683 mmHg 89%
    19:00 +18°C° 0 mm 1 mps 683 mmHg 91%
    20:00 +16°C° 0 mm 1 mps 683 mmHg 93%
    21:00 +15°C° 0 mm 1 mps 683 mmHg 94%
    22:00 +15°C° 0 mm 1 mps 682 mmHg 95%
    23:00 +14°C° 0 mm 1 mps 682 mmHg 95%

    24 August, Saturday

    Time Temperature Precipitation Wind Pressure Humidity
    00:00 +14°C° 0 mm 1 mps 682 mmHg 96%
    01:00 +14°C° 0 mm 1 mps 682 mmHg 96%
    02:00 +14°C° 0 mm 1 mps 682 mmHg 96%
    03:00 +13°C° 0 mm 1 mps 682 mmHg 96%
    04:00 +14°C° 0 mm 1 mps 682 mmHg 95%
    05:00 +14°C° 0 mm 1 mps 682 mmHg 95%
    06:00 +14°C° 0 mm 0 mps 682 mmHg 94%
    07:00 +16°C° 0 mm 0 mps 682 mmHg 85%
    08:00 +18°C° 0 mm 0 mps 683 mmHg 76%
    09:00 +21°C° 0 mm 0 mps 684 mmHg 68%
    10:00 +24°C° 0 mm 1 mps 684 mmHg 63%
    11:00 +25°C° 0 mm 1 mps 683 mmHg 58%
    12:00 +25°C° 0 mm 1 mps 683 mmHg 54%
    13:00 +25°C° 0 mm 1 mps 683 mmHg 54%
    14:00 +25°C° 0 mm 1 mps 683 mmHg 55%
    15:00 +25°C° 0 mm 1 mps 683 mmHg 56%
    16:00 +23°C° 0 mm 1 mps 682 mmHg 64%
    17:00 +22°C° 0 mm 1 mps 682 mmHg 73%
    18:00 +18°C° 0 mm 0 mps 682 mmHg 81%
    19:00 +17°C° 0 mm 0 mps 682 mmHg 83%
    20:00 +18°C° 0 mm 1 mps 682 mmHg 85%
    21:00 +16°C° 0 mm 1 mps 682 mmHg 87%
    22:00 +16°C° 0 mm 1 mps 682 mmHg 88%
    23:00 +15°C° 0 mm 1 mps 682 mmHg 90%

    25 August, Sunday

    Time Temperature Precipitation Wind Pressure Humidity
    00:00 +15°C° 0 mm 1 mps 681 mmHg 91%
    01:00 +14°C° 0 mm 0 mps 681 mmHg 91%
    02:00 +13°C° 0 mm 0 mps 681 mmHg 91%
    03:00 +13°C° 0 mm 0 mps 681 mmHg 91%
    04:00 +13°C° 0 mm 0 mps 681 mmHg 90%
    05:00 +14°C° 0 mm 0 mps 681 mmHg 89%
    06:00 +14°C° 0 mm 0 mps 682 mmHg 88%
    07:00 +17°C° 0 mm 0 mps 682 mmHg 79%
    08:00 +19°C° 0 mm 0 mps 683 mmHg 71%
    09:00 +21°C° 0 mm 0 mps 684 mmHg 62%
    10:00 +24°C° 0 mm 1 mps 684 mmHg 58%
    11:00 +25°C° 0 mm 1 mps 684 mmHg 54%
    12:00 +26°C° 0 mm 1 mps 684 mmHg 49%
    13:00 +26°C° 0 mm 1 mps 683 mmHg 50%
    14:00 +26°C° 0 mm 1 mps 683 mmHg 51%
    15:00 +26°C° 0 mm 1 mps 683 mmHg 51%
    16:00 +24°C° 0 mm 1 mps 683 mmHg 59%
    17:00 +22°C° 0 mm 1 mps 683 mmHg 68%
    18:00 +18°C° 0 mm 0 mps 682 mmHg 76%
    19:00 +19°C° 0 mm 1 mps 682 mmHg 76%
    20:00 +18°C° 0 mm 1 mps 683 mmHg 76%
    21:00 +16°C° 0 mm 1 mps 683 mmHg 77%
    22:00 +16°C° 0 mm 1 mps 683 mmHg 79%
    23:00 +15°C° 0 mm 1 mps 683 mmHg 80%
    Show more